Content
SEND FEEDBACK

Daily
Averages
Monthly
Summary
United Kingdom

LEEDS, ENGLAND


Home > Europe > United Kingdom > England
Elevation: 154 feet     Latitude: 53 48N     Longitude: 001 33W

WEATHER
 
SELECT A DAY
Number of Records: 299,944;   Date Range: 7/1/96 - 8/28/14
 
SHARE

PRINT THIS DATA

[ ← Previous Day ]
WEATHER ALMANAC - OCTOBER 15, 2013
[ Next Day → ]
[ °C ]   °F
Weather ElementAverageHighLow
Temperature49.2 °F53.6 °F (12:20 pm)44.6 °F (11:50 pm)
Dewpoint48 °F51.8 °F (12:20 pm)44.6 °F (11:50 pm)
Humidity95.8 %100 % (12:50 am)85 % (3:50 pm)
Barometer29.85 in29.98 in (10:50 pm)29.77 in (12:50 am)
Wind Speed8.1 mph11.5 mph (10:50 am)
Weather ElementAverage
Visibility4.7 mi
Wind DirectionSSE (149.8 °)

Weather ElementTotal
Precipitation---
Heating Degree Days15.9 (Base 65)
Averaged from 52 records on October 15, 2013
WEATHER CONDITIONS BREAKOUT
WIND DIRECTION BREAKOUT
WEATHER BY HOUR - OCTOBER 15, 2013
[ °C ]   °F
Local TimeTemperatureDewpointHumidityBarometerVisibilityWind DirectionWind SpeedGust SpeedPrecipitationEventsConditions
12:50 AM45.0 °F45.0 °F98 %NW (310°)6.9 mph
12:50 AM48.2 °F48.2 °F100 %29.77 in1.6 miNorth (350°)6.9 mphMostly Cloudy
1:50 AM46.4 °F46.4 °F100 %29.77 in3.1 miNW (320°)6.9 mphMostly Cloudy
2:20 AM46.4 °F46.4 °F100 %29.77 in4.3 miNNW (340°)8.1 mphScattered Clouds
2:50 AM46.4 °F46.4 °F100 %29.77 in6.2 miNorth (350°)9.2 mphPartly Cloudy
3:20 AM48.2 °F46.4 °F93 %29.77 in6.2 miNW (320°)8.1 mphPartly Cloudy
3:50 AM48.2 °F46.4 °F93 %29.77 in6.2 miNW (320°)8.1 mphPartly Cloudy
4:20 AM48.2 °F46.4 °F93 %29.77 in6.2 miNNW (330°)8.1 mphScattered Clouds
4:50 AM48.2 °F48.2 °F100 %29.77 in4.3 miNNW (330°)9.2 mphScattered Clouds
5:20 AM48.2 °F48.2 °F100 %29.77 in3.1 miNNW (340°)9.2 mphScattered Clouds
5:50 AM48.2 °F48.2 °F100 %29.77 in3.1 miNNW (330°)9.2 mphScattered Clouds
6:20 AM48.2 °F48.2 °F100 %29.77 in5.0 miNW (320°)8.1 mphScattered Clouds
6:50 AM48.2 °F48.2 °F100 %29.77 in5.0 miNNW (330°)9.2 mphMostly Cloudy
7:20 AM48.2 °F48.2 °F100 %29.77 in4.3 miNNW (330°)10.4 mphLight Drizzle
7:50 AM48.2 °F48.2 °F100 %29.77 in4.3 miNNW (330°)9.2 mphMostly Cloudy
8:20 AM50.0 °F48.2 °F94 %29.80 in4.3 miNNW (330°)6.9 mphRainLight Rain
8:50 AM50.0 °F50.0 °F100 %29.80 in4.3 miNorth (350°)8.1 mphRainLight Rain
9:20 AM50.0 °F50.0 °F100 %29.80 in1.6 miNorth (350°)6.9 mphRainLight Rain
9:50 AM49.0 °F49.0 °F98 %NNW (340°)10.4 mph
9:50 AM50.0 °F50.0 °F100 %29.80 inNorth (360°)8.1 mphMostly Cloudy
10:20 AM50.0 °F50.0 °F100 %29.80 in5.0 miNorth (360°)9.2 mphMostly Cloudy
10:50 AM50.0 °F50.0 °F100 %29.80 inNNE (20°)11.5 mphRainLight Rain
11:20 AM50.0 °F50.0 °F100 %29.83 in4.3 miNNE (20°)9.2 mphScattered Clouds
11:50 AM51.8 °F50.0 °F94 %29.83 in5.0 miNNE (30°)10.4 mphScattered Clouds
12:20 PM53.6 °F51.8 °F94 %29.83 in5.0 miNE (40°)10.4 mphScattered Clouds
12:50 PM53.6 °F50.0 °F88 %29.83 in5.6 miNE (40°)8.1 mphScattered Clouds
12:50 PM52.0 °F50.0 °F89 %NNE (30°)9.2 mph
1:20 PM53.6 °F50.0 °F88 %29.83 in6.2 miNE (40°)6.9 mphScattered Clouds
1:50 PM53.6 °F50.0 °F88 %29.86 in6.2 miNNE (30°)9.2 mphScattered Clouds
2:20 PM53.6 °F50.0 °F88 %29.86 in6.2 miNNE (20°)9.2 mphScattered Clouds
2:50 PM53.6 °F50.0 °F88 %29.86 in6.2 miNNE (30°)8.1 mphScattered Clouds
3:20 PM51.8 °F50.0 °F94 %29.86 in6.2 miNNE (20°)9.2 mphScattered Clouds
3:50 PM51.8 °F50.0 °F94 %29.86 in6.2 miNorth (10°)10.4 mphScattered Clouds
3:50 PM52.0 °F49.0 °F85 %NNE (20°)6.9 mph
4:20 PM51.8 °F50.0 °F94 %29.89 in6.2 miNNE (20°)10.4 mphScattered Clouds
4:50 PM51.8 °F48.2 °F88 %29.89 in6.2 miNNE (20°)10.4 mphMostly Cloudy
5:20 PM50.0 °F48.2 °F94 %29.89 in6.2 miNNE (30°)9.2 mphMostly Cloudy
5:50 PM50.0 °F46.4 °F87 %29.89 in6.2 miNNE (20°)9.2 mphScattered Clouds
6:20 PM50.0 °F46.4 °F87 %29.89 in6.2 miNNE (30°)10.4 mphScattered Clouds
6:50 PM48.2 °F46.4 °F93 %29.92 in6.2 miNNE (30°)11.5 mphPartly Cloudy
6:50 PM49.0 °F47.0 °F88 %NNE (30°)8.1 mph
7:20 PM48.2 °F46.4 °F93 %29.92 in6.2 miNNE (30°)6.9 mphPartly Cloudy
7:50 PM46.4 °F46.4 °F100 %29.95 in6.2 miNNE (20°)5.8 mphPartly Cloudy
8:20 PM46.4 °F46.4 °F100 %29.95 inNNE (20°)8.1 mphClear
8:50 PM46.4 °F46.4 °F100 %29.95 inNE (40°)4.6 mphClear
9:20 PM46.4 °F46.4 °F100 %29.95 in5.6 miNNE (30°)6.9 mphPartly Cloudy
9:50 PM46.4 °F46.4 °F100 %29.95 in2.5 miNNE (20°)6.9 mphScattered Clouds
9:50 PM47.0 °F46.0 °F97 %NE (40°)3.5 mph
10:20 PM46.4 °F46.4 °F100 %29.95 in1.9 miNNE (20°)4.6 mphMostly Cloudy
10:50 PM46.4 °F46.4 °F100 %29.98 in1.2 miVariable3.5 mphMostly Cloudy
11:20 PM46.4 °F46.4 °F100 %29.95 in0.9 miVariable3.5 mphMostly Cloudy
11:50 PM44.6 °F44.6 °F100 %29.95 in0.3 miVariable3.5 mphFogFog
Hourly data recorded from EGNM, located miles away from Leeds, England







STORIES FROM OUR PARTNERS